Tiempo cada hora Murowanka

Hoy, 20 Octubre, Martes

Tiempo Temperatura Precipitaciones Viento Presión Humedad
00:00 +4°C° 0 mm 3 mps 758 mmHg 88%
01:00 +3°C° 0 mm 3 mps 758 mmHg 89%
02:00 +3°C° 0 mm 3 mps 758 mmHg 89%
03:00 +3°C° 0 mm 3 mps 758 mmHg 90%
04:00 +3°C° 0 mm 3 mps 758 mmHg 91%
05:00 +4°C° 0 mm 2 mps 758 mmHg 90%
06:00 +4°C° 0 mm 2 mps 759 mmHg 89%
07:00 +4°C° 0 mm 2 mps 759 mmHg 89%
08:00 +6°C° 0 mm 2 mps 759 mmHg 83%
09:00 +7°C° 0 mm 2 mps 759 mmHg 78%
10:00 +8°C° 0 mm 2 mps 759 mmHg 72%
11:00 +9°C° 0 mm 3 mps 758 mmHg 69%
12:00 +10°C° 0 mm 3 mps 758 mmHg 66%
13:00 +11°C° 0 mm 3 mps 758 mmHg 63%
14:00 +10°C° 0 mm 4 mps 757 mmHg 66%
15:00 +10°C° 0 mm 4 mps 756 mmHg 69%
16:00 +10°C° 0 mm 4 mps 756 mmHg 72%
17:00 +9°C° 0 mm 5 mps 755 mmHg 72%
18:00 +9°C° 0 mm 5 mps 755 mmHg 73%
19:00 +8°C° 0 mm 5 mps 755 mmHg 74%
20:00 +8°C° 0 mm 5 mps 754 mmHg 75%
21:00 +8°C° 0 mm 5 mps 754 mmHg 75%
22:00 +8°C° 0 mm 5 mps 753 mmHg 76%
23:00 +8°C° 0 mm 5 mps 753 mmHg 75%

Mañana, 21 Octubre, Miércoles

Tiempo Temperatura Precipitaciones Viento Presión Humedad
00:00 +8°C° 0 mm 5 mps 753 mmHg 73%
01:00 +8°C° 0 mm 4 mps 753 mmHg 72%
02:00 +8°C° 0 mm 5 mps 752 mmHg 71%
03:00 +8°C° 0 mm 5 mps 752 mmHg 70%
04:00 +8°C° 0 mm 5 mps 752 mmHg 69%
05:00 +8°C° 0.1 mm 5 mps 751 mmHg 69%
06:00 +9°C° 0.1 mm 5 mps 751 mmHg 69%
07:00 +10°C° 0.1 mm 4 mps 751 mmHg 69%
08:00 +10°C° 0 mm 4 mps 751 mmHg 69%
09:00 +10°C° 0 mm 4 mps 752 mmHg 69%
10:00 +11°C° 0 mm 4 mps 752 mmHg 70%
11:00 +11°C° 0 mm 4 mps 752 mmHg 70%
12:00 +11°C° 0 mm 3 mps 752 mmHg 71%
13:00 +11°C° 0 mm 3 mps 752 mmHg 71%
14:00 +11°C° 0 mm 3 mps 751 mmHg 70%
15:00 +11°C° 0 mm 3 mps 751 mmHg 70%
16:00 +11°C° 0 mm 3 mps 751 mmHg 69%
17:00 +12°C° 0 mm 3 mps 751 mmHg 69%
18:00 +12°C° 0 mm 3 mps 751 mmHg 69%
19:00 +12°C° 0 mm 4 mps 751 mmHg 68%
20:00 +11°C° 0 mm 4 mps 751 mmHg 71%
21:00 +11°C° 0 mm 4 mps 751 mmHg 74%
22:00 +11°C° 0 mm 4 mps 751 mmHg 76%
23:00 +10°C° 0 mm 4 mps 751 mmHg 77%

Pasado mañana, 22 Octubre, Jueves

Tiempo Temperatura Precipitaciones Viento Presión Humedad
00:00 +10°C° 0 mm 4 mps 751 mmHg 77%
01:00 +10°C° 0 mm 4 mps 751 mmHg 78%
02:00 +10°C° 0 mm 4 mps 751 mmHg 78%
03:00 +10°C° 0 mm 4 mps 750 mmHg 78%
04:00 +10°C° 0 mm 4 mps 750 mmHg 79%
05:00 +10°C° 0 mm 5 mps 750 mmHg 77%
06:00 +10°C° 0 mm 5 mps 751 mmHg 76%
07:00 +10°C° 0 mm 5 mps 751 mmHg 75%
08:00 +13°C° 0 mm 5 mps 751 mmHg 71%
09:00 +14°C° 0 mm 5 mps 751 mmHg 67%
10:00 +16°C° 0 mm 6 mps 752 mmHg 64%
11:00 +16°C° 0 mm 5 mps 752 mmHg 63%
12:00 +17°C° 0 mm 5 mps 752 mmHg 62%
13:00 +19°C° 0 mm 5 mps 752 mmHg 61%
14:00 +18°C° 0 mm 4 mps 752 mmHg 64%
15:00 +17°C° 0 mm 4 mps 751 mmHg 68%
16:00 +17°C° 0 mm 3 mps 751 mmHg 71%
17:00 +16°C° 0 mm 3 mps 751 mmHg 74%
18:00 +14°C° 0 mm 3 mps 752 mmHg 76%
19:00 +14°C° 0 mm 3 mps 752 mmHg 79%
20:00 +14°C° 0 mm 3 mps 752 mmHg 80%
21:00 +13°C° 0 mm 3 mps 752 mmHg 80%
22:00 +13°C° 0 mm 3 mps 752 mmHg 81%
23:00 +13°C° 0 mm 3 mps 751 mmHg 82%

23 Octubre, Viernes

Tiempo Temperatura Precipitaciones Viento Presión Humedad
00:00 +13°C° 0 mm 3 mps 751 mmHg 82%
01:00 +13°C° 0 mm 3 mps 751 mmHg 83%
02:00 +13°C° 0 mm 3 mps 751 mmHg 82%
03:00 +13°C° 0 mm 3 mps 751 mmHg 80%
04:00 +13°C° 0 mm 3 mps 750 mmHg 79%
05:00 +13°C° 0 mm 4 mps 750 mmHg 79%
06:00 +13°C° 0 mm 4 mps 750 mmHg 79%
07:00 +13°C° 0 mm 4 mps 749 mmHg 79%
08:00 +13°C° 0 mm 4 mps 749 mmHg 78%
09:00 +14°C° 0 mm 4 mps 749 mmHg 77%
10:00 +14°C° 0 mm 4 mps 749 mmHg 77%
11:00 +15°C° 0 mm 5 mps 749 mmHg 74%
12:00 +16°C° 0 mm 5 mps 749 mmHg 72%
13:00 +17°C° 0 mm 5 mps 749 mmHg 70%
14:00 +17°C° 0 mm 4 mps 749 mmHg 72%
15:00 +17°C° 0 mm 4 mps 749 mmHg 75%
16:00 +15°C° 0 mm 4 mps 749 mmHg 78%
17:00 +16°C° 0 mm 3 mps 749 mmHg 81%
18:00 +14°C° 0 mm 3 mps 750 mmHg 83%
19:00 +14°C° 0 mm 2 mps 750 mmHg 86%
20:00 +13°C° 0 mm 2 mps 750 mmHg 88%
21:00 +13°C° 0 mm 2 mps 750 mmHg 89%
22:00 +13°C° 0 mm 2 mps 750 mmHg 91%
23:00 +13°C° 0 mm 2 mps 749 mmHg 91%

24 Octubre, Sábado

Tiempo Temperatura Precipitaciones Viento Presión Humedad
00:00 +13°C° 0 mm 2 mps 749 mmHg 92%
01:00 +13°C° 0 mm 2 mps 749 mmHg 93%
02:00 +13°C° 0.2 mm 2 mps 749 mmHg 93%
03:00 +13°C° 0.2 mm 2 mps 748 mmHg 93%
04:00 +12°C° 0.2 mm 3 mps 748 mmHg 93%
05:00 +12°C° 2.9 mm 3 mps 748 mmHg 94%
06:00 +12°C° 2.9 mm 4 mps 747 mmHg 95%
07:00 +12°C° 2.9 mm 4 mps 747 mmHg 96%
08:00 +12°C° 1.8 mm 4 mps 747 mmHg 95%
09:00 +12°C° 1.8 mm 4 mps 746 mmHg 94%
10:00 +12°C° 1.8 mm 5 mps 746 mmHg 93%
11:00 +12°C° 1.4 mm 5 mps 747 mmHg 90%
12:00 +11°C° 1.4 mm 6 mps 747 mmHg 87%
13:00 +10°C° 1.4 mm 6 mps 747 mmHg 85%
14:00 +10°C° 0.3 mm 6 mps 747 mmHg 82%
15:00 +10°C° 0.3 mm 6 mps 748 mmHg 78%
16:00 +10°C° 0.3 mm 6 mps 748 mmHg 75%
17:00 +9°C° 0 mm 6 mps 749 mmHg 75%
18:00 +9°C° 0 mm 6 mps 750 mmHg 75%
19:00 +8°C° 0 mm 7 mps 751 mmHg 75%
20:00 +8°C° 0 mm 6 mps 751 mmHg 76%
21:00 +7°C° 0 mm 6 mps 752 mmHg 76%
22:00 +7°C° 0 mm 6 mps 752 mmHg 76%
23:00 +5°C° 0 mm 6 mps 753 mmHg 79%

25 Octubre, Domingo

Tiempo Temperatura Precipitaciones Viento Presión Humedad
00:00 +6°C° 0 mm 5 mps 753 mmHg 81%
01:00 +6°C° 0 mm 5 mps 753 mmHg 84%
02:00 +5°C° 0 mm 4 mps 754 mmHg 86%
03:00 +5°C° 0 mm 4 mps 754 mmHg 88%
04:00 +5°C° 0 mm 3 mps 754 mmHg 90%
05:00 +5°C° 0 mm 3 mps 754 mmHg 91%
06:00 +4°C° 0 mm 3 mps 754 mmHg 91%
07:00 +4°C° 0 mm 3 mps 754 mmHg 92%
08:00 +7°C° 0 mm 3 mps 755 mmHg 86%
09:00 +8°C° 0 mm 3 mps 755 mmHg 80%
10:00 +9°C° 0 mm 2 mps 755 mmHg 74%
11:00 +10°C° 0 mm 2 mps 755 mmHg 69%
12:00 +12°C° 0 mm 2 mps 755 mmHg 64%
13:00 +13°C° 0 mm 2 mps 755 mmHg 60%
14:00 +12°C° 0 mm 2 mps 754 mmHg 62%
15:00 +10°C° 0 mm 2 mps 754 mmHg 65%
16:00 +10°C° 0 mm 2 mps 754 mmHg 68%
17:00 +9°C° 0 mm 2 mps 754 mmHg 70%
18:00 +8°C° 0 mm 2 mps 754 mmHg 73%
19:00 +8°C° 0 mm 3 mps 754 mmHg 75%
20:00 +8°C° 0 mm 3 mps 754 mmHg 76%
21:00 +7°C° 0 mm 3 mps 754 mmHg 77%
22:00 +7°C° 0 mm 3 mps 754 mmHg 78%
23:00 +7°C° 0 mm 3 mps 754 mmHg 79%

26 Octubre, Lunes

Tiempo Temperatura Precipitaciones Viento Presión Humedad
00:00 +7°C° 0 mm 3 mps 754 mmHg 80%
01:00 +5°C° 0 mm 4 mps 753 mmHg 81%
02:00 +5°C° 0 mm 4 mps 753 mmHg 82%
03:00 +5°C° 0 mm 4 mps 753 mmHg 82%
04:00 +5°C° 0 mm 4 mps 753 mmHg 83%
05:00 +5°C° 0 mm 4 mps 753 mmHg 83%
06:00 +5°C° 0 mm 4 mps 752 mmHg 83%
07:00 +4°C° 0 mm 4 mps 752 mmHg 84%
08:00 +6°C° 0 mm 5 mps 752 mmHg 78%
09:00 +7°C° 0 mm 5 mps 752 mmHg 73%
10:00 +8°C° 0 mm 5 mps 752 mmHg 67%
11:00 +9°C° 0 mm 5 mps 752 mmHg 66%
12:00 +10°C° 0 mm 5 mps 751 mmHg 64%
13:00 +12°C° 0 mm 5 mps 751 mmHg 62%
14:00 +12°C° 0 mm 5 mps 751 mmHg 65%
15:00 +11°C° 0 mm 4 mps 751 mmHg 69%
16:00 +10°C° 0 mm 4 mps 750 mmHg 72%
17:00 +10°C° 0 mm 4 mps 750 mmHg 75%
18:00 +8°C° 0 mm 4 mps 751 mmHg 78%
19:00 +8°C° 0 mm 4 mps 751 mmHg 81%
20:00 +8°C° 0 mm 4 mps 751 mmHg 80%
21:00 +8°C° 0 mm 4 mps 751 mmHg 80%
22:00 +8°C° 0 mm 4 mps 751 mmHg 79%
23:00 +8°C° 0 mm 4 mps 751 mmHg 78%
Mostrar más

Necesitamos Su Consentimiento

Meteoprog y nuestros Proveedores de Servicios pueden almacenar y acceder a sus datos personales como cookies, identificadores de dispositivo u otras tecnologías similares de su dispositivo y procesar dichos datos para personalizar contenido y anuncios, además de ofrecer funciones de redes sociales y analizar el tráfico.

  • Almacenar y/o acceder a información en su dispositivo

    Se puede almacenar o acceder a cookies, identificadores de dispositivo u otra información de su dispositivo para los fines anteriormente indicados.

  • Anuncios y contenido personalizados, medición de anuncios y contenido, percepciones del público, y desarrollo de productos

    Los anuncios y el contenido pueden personalizarse en base a su perfil. Se pueden añadir más datos para personalizar mejor los anuncios y contenidos. Se puede medir el rendimiento de los anuncios y contenidos. Se puede obtener la percepción sobre el público que ha visto los anuncios y contenidos. Dichos datos pueden usarse para desarrollar o mejorar la experiencia del usuario, sistemas y software.

Al hacer clic en ‘Estoy De Acuerdo’ usted permitirá el uso de las cookies, identificadores de dispositivo, balizas web u otras tecnologías similares indicadas. Su configuración puede cambiarse desde el navegador de su dispositivo.

Para ciertos fines, los intereses legítimos pueden ser considerados por encima del consentimiento. Puede leer más sobre ello en nuestra Política de Privacidad y Cookies.